# STATION: KMDW
# STATION NAME: Chicago, Chicago Midway Airport
# LATITUDE: 41.78417
# LONGITUDE: -87.75528
# ELEVATION [ft]: 617
# STATE: IL
Station_ID,Date_Time,air_temp_[C],dew_point_temperature_[C],relative_humidity_[%],wind_speed_[m/s],wind_direction_[degrees],wind_gust_[m/s],dew_point_temperature_s2[C]
KMDW,08/09/2020 06:00 UTC,24.0,,78.39,4.12,220.0,,20.0
KMDW,08/09/2020 06:05 UTC,24.0,,78.39,4.63,220.0,,20.0
KMDW,08/09/2020 06:10 UTC,24.0,,78.39,4.12,220.0,,20.0
KMDW,08/09/2020 06:15 UTC,24.0,,78.39,4.63,210.0,,20.0
KMDW,08/09/2020 06:20 UTC,24.0,,78.39,4.63,220.0,,20.0
KMDW,08/09/2020 06:25 UTC,24.0,,78.39,3.6,210.0,,20.0
KMDW,08/09/2020 06:30 UTC,24.0,,78.39,4.12,210.0,,20.0
KMDW,08/09/2020 06:35 UTC,24.0,,78.39,3.6,210.0,,20.0
KMDW,08/09/2020 06:40 UTC,24.0,,78.39,4.12,210.0,,20.0
KMDW,08/09/2020 06:45 UTC,24.0,,78.39,4.12,200.0,,20.0
KMDW,08/09/2020 06:50 UTC,24.0,,78.39,3.09,210.0,,20.0
KMDW,08/09/2020 06:53 UTC,24.4,20.0,76.54,4.12,210.0,,20.0
KMDW,08/09/2020 06:55 UTC,24.0,,78.39,4.63,210.0,,20.0
KMDW,08/09/2020 07:00 UTC,24.0,,73.67,4.12,210.0,,18.99
KMDW,08/09/2020 07:05 UTC,24.0,,73.67,3.09,210.0,,18.99
KMDW,08/09/2020 07:10 UTC,24.0,,73.67,3.6,210.0,,18.99
KMDW,08/09/2020 07:15 UTC,24.0,,73.67,3.09,200.0,,18.99
KMDW,08/09/2020 07:20 UTC,24.0,,73.67,4.12,200.0,,18.99
KMDW,08/09/2020 07:25 UTC,24.0,,73.67,4.12,190.0,,18.99
KMDW,08/09/2020 07:30 UTC,24.0,,73.67,4.63,200.0,,18.99
KMDW,08/09/2020 07:35 UTC,24.0,,73.67,4.63,200.0,,18.99
KMDW,08/09/2020 07:40 UTC,24.0,,73.67,4.63,200.0,,18.99
KMDW,08/09/2020 07:45 UTC,24.0,,73.67,5.14,200.0,,18.99
KMDW,08/09/2020 07:50 UTC,24.0,,73.67,4.63,200.0,,18.99
KMDW,08/09/2020 07:53 UTC,23.9,19.4,75.98,5.14,210.0,,19.39
KMDW,08/09/2020 07:55 UTC,24.0,,73.67,4.63,210.0,,18.99
KMDW,08/09/2020 08:00 UTC,24.0,,73.67,4.63,210.0,,18.99
KMDW,08/09/2020 08:05 UTC,24.0,,78.39,4.63,210.0,,20.0
KMDW,08/09/2020 08:10 UTC,24.0,,78.39,4.63,220.0,,20.0
KMDW,08/09/2020 08:15 UTC,24.0,,78.39,4.63,210.0,,20.0
KMDW,08/09/2020 08:20 UTC,24.0,,78.39,4.63,220.0,,20.0
KMDW,08/09/2020 08:25 UTC,24.0,,78.39,4.12,210.0,,20.0
KMDW,08/09/2020 08:30 UTC,24.0,,78.39,4.12,220.0,,20.0
KMDW,08/09/2020 08:35 UTC,24.0,,78.39,4.63,220.0,,20.0
KMDW,08/09/2020 08:40 UTC,24.0,,78.39,4.12,210.0,,20.0
KMDW,08/09/2020 08:45 UTC,24.0,,78.39,4.12,220.0,,20.0
KMDW,08/09/2020 08:50 UTC,24.0,,78.39,4.12,220.0,,20.0
KMDW,08/09/2020 08:53 UTC,23.9,20.0,78.86,4.63,230.0,,19.99
KMDW,08/09/2020 08:55 UTC,23.0,,83.25,4.12,230.0,,19.99
KMDW,08/09/2020 09:00 UTC,23.0,,83.25,4.12,220.0,,19.99
KMDW,08/09/2020 09:05 UTC,23.0,,83.25,3.09,220.0,,19.99
KMDW,08/09/2020 09:10 UTC,23.0,,83.25,3.09,210.0,,19.99
KMDW,08/09/2020 09:15 UTC,23.0,,83.25,3.09,220.0,,19.99
KMDW,08/09/2020 09:20 UTC,23.0,,83.25,3.09,210.0,,19.99
KMDW,08/09/2020 09:25 UTC,23.0,,83.25,4.12,220.0,,19.99
KMDW,08/09/2020 09:30 UTC,23.0,,83.25,4.63,230.0,,19.99
KMDW,08/09/2020 09:35 UTC,23.0,,83.25,4.63,220.0,,19.99
KMDW,08/09/2020 09:40 UTC,23.0,,83.25,4.12,220.0,,19.99
KMDW,08/09/2020 09:45 UTC,23.0,,83.25,3.6,220.0,,19.99
KMDW,08/09/2020 09:50 UTC,23.0,,83.25,4.12,220.0,,19.99
KMDW,08/09/2020 09:53 UTC,23.3,20.0,81.76,3.6,220.0,,19.99
KMDW,08/09/2020 09:55 UTC,23.0,,83.25,4.63,220.0,,19.99
KMDW,08/09/2020 10:00 UTC,23.0,,83.25,4.12,220.0,,19.99
KMDW,08/09/2020 10:05 UTC,23.0,,83.25,4.12,220.0,,19.99
KMDW,08/09/2020 10:10 UTC,23.0,,83.25,4.12,220.0,,19.99
KMDW,08/09/2020 10:15 UTC,23.0,,83.25,5.14,210.0,,19.99
KMDW,08/09/2020 10:20 UTC,23.0,,83.25,4.63,210.0,,19.99
KMDW,08/09/2020 10:25 UTC,23.0,,83.25,5.14,210.0,,19.99
KMDW,08/09/2020 10:30 UTC,23.0,,83.25,4.12,210.0,,19.99
KMDW,08/09/2020 10:35 UTC,23.0,,83.25,3.6,210.0,,19.99
KMDW,08/09/2020 10:40 UTC,23.0,,83.25,4.12,220.0,,19.99
KMDW,08/09/2020 10:45 UTC,23.0,,83.25,3.6,220.0,,19.99
KMDW,08/09/2020 10:50 UTC,22.0,,88.46,4.12,220.0,,20.0
KMDW,08/09/2020 10:53 UTC,22.2,20.0,87.39,3.6,220.0,,19.99
KMDW,08/09/2020 10:55 UTC,22.0,,88.46,3.6,220.0,,20.0
KMDW,08/09/2020 11:00 UTC,22.0,,88.46,3.6,220.0,,20.0
KMDW,08/09/2020 11:05 UTC,22.0,,88.46,3.09,220.0,,20.0
KMDW,08/09/2020 11:10 UTC,22.0,,88.46,3.09,220.0,,20.0
KMDW,08/09/2020 11:15 UTC,22.0,,88.46,3.6,210.0,,20.0
KMDW,08/09/2020 11:20 UTC,23.0,,83.25,3.6,210.0,,19.99
KMDW,08/09/2020 11:25 UTC,22.0,,88.46,3.6,210.0,,20.0
KMDW,08/09/2020 11:30 UTC,22.0,,88.46,3.6,200.0,,20.0
KMDW,08/09/2020 11:35 UTC,23.0,,83.25,3.6,210.0,,19.99
KMDW,08/09/2020 11:40 UTC,23.0,,83.25,3.09,200.0,,19.99
KMDW,08/09/2020 11:45 UTC,23.0,,83.25,3.6,200.0,,19.99
KMDW,08/09/2020 11:50 UTC,23.0,,83.25,3.6,200.0,,19.99
KMDW,08/09/2020 11:53 UTC,22.8,20.0,84.26,3.6,200.0,,19.99
KMDW,08/09/2020 11:55 UTC,23.0,,83.25,3.09,190.0,,19.99
KMDW,08/09/2020 12:00 UTC,23.0,,83.25,3.6,210.0,,19.99
KMDW,08/09/2020 12:05 UTC,23.0,,83.25,3.6,200.0,,19.99
KMDW,08/09/2020 12:10 UTC,23.0,,83.25,5.14,200.0,,19.99
KMDW,08/09/2020 12:15 UTC,23.0,,83.25,3.6,210.0,,19.99
KMDW,08/09/2020 12:20 UTC,23.0,,83.25,3.6,200.0,,19.99
KMDW,08/09/2020 12:25 UTC,23.0,,83.25,4.12,220.0,,19.99
KMDW,08/09/2020 12:30 UTC,23.0,,83.25,3.6,210.0,,19.99
KMDW,08/09/2020 12:35 UTC,24.0,,78.39,3.6,210.0,,20.0
KMDW,08/09/2020 12:40 UTC,24.0,,83.37,3.6,210.0,,21.0
KMDW,08/09/2020 12:45 UTC,24.0,,83.37,2.57,200.0,,21.0
KMDW,08/09/2020 12:50 UTC,24.0,,83.37,3.09,180.0,,21.0
KMDW,08/09/2020 12:53 UTC,24.4,20.0,76.54,3.09,190.0,,20.0
KMDW,08/09/2020 12:55 UTC,24.0,,78.39,3.09,190.0,,20.0
KMDW,08/09/2020 13:00 UTC,24.0,,78.39,2.57,190.0,,20.0
KMDW,08/09/2020 13:05 UTC,24.0,,78.39,3.09,190.0,,20.0
KMDW,08/09/2020 13:10 UTC,24.0,,78.39,2.06,200.0,,20.0
KMDW,08/09/2020 13:15 UTC,25.0,,73.85,2.06,200.0,,20.0
KMDW,08/09/2020 13:20 UTC,25.0,,73.85,2.57,200.0,,20.0
KMDW,08/09/2020 13:25 UTC,26.0,,65.41,2.06,210.0,,19.0
KMDW,08/09/2020 13:30 UTC,26.0,,65.41,2.57,190.0,,19.0
KMDW,08/09/2020 13:35 UTC,26.0,,65.41,3.09,210.0,,19.0
KMDW,08/09/2020 13:40 UTC,26.0,,65.41,3.09,210.0,,19.0
KMDW,08/09/2020 13:45 UTC,26.0,,65.41,3.09,220.0,,19.0
KMDW,08/09/2020 13:50 UTC,26.0,,65.41,3.09,200.0,,19.0
KMDW,08/09/2020 13:53 UTC,26.7,18.9,62.38,2.57,220.0,,18.91
KMDW,08/09/2020 13:55 UTC,27.0,,61.67,3.6,200.0,,19.01
KMDW,08/09/2020 14:00 UTC,27.0,,61.67,3.09,220.0,,19.01
KMDW,08/09/2020 14:05 UTC,27.0,,61.67,3.6,190.0,,19.01
KMDW,08/09/2020 14:10 UTC,27.0,,61.67,4.12,210.0,,19.01
KMDW,08/09/2020 14:15 UTC,27.0,,61.67,4.12,190.0,,19.01
KMDW,08/09/2020 14:20 UTC,27.0,,57.94,4.63,210.0,,18.01
KMDW,08/09/2020 14:25 UTC,28.0,,54.65,5.14,200.0,,18.02
KMDW,08/09/2020 14:30 UTC,27.0,,57.94,5.66,210.0,,18.01
KMDW,08/09/2020 14:35 UTC,28.0,,54.65,4.12,220.0,,18.02
KMDW,08/09/2020 14:40 UTC,28.0,,54.65,5.14,210.0,,18.02
KMDW,08/09/2020 14:45 UTC,28.0,,54.65,4.63,220.0,,18.02
KMDW,08/09/2020 14:50 UTC,28.0,,54.65,4.63,210.0,,18.02
KMDW,08/09/2020 14:53 UTC,28.3,17.8,53.04,5.14,220.0,,17.82
KMDW,08/09/2020 14:55 UTC,28.0,,54.65,4.12,220.0,,18.02
KMDW,08/09/2020 15:00 UTC,28.0,,54.65,4.63,230.0,,18.02
KMDW,08/09/2020 15:05 UTC,29.0,,51.58,4.63,220.0,,18.03
KMDW,08/09/2020 15:10 UTC,29.0,,51.58,5.14,210.0,,18.03
KMDW,08/09/2020 15:15 UTC,29.0,,51.58,5.14,240.0,,18.03
KMDW,08/09/2020 15:20 UTC,29.0,,51.58,4.63,220.0,,18.03
KMDW,08/09/2020 15:25 UTC,29.0,,51.58,3.6,210.0,,18.03
KMDW,08/09/2020 15:30 UTC,29.0,,51.58,3.6,200.0,,18.03
KMDW,08/09/2020 15:35 UTC,29.0,,51.58,3.6,210.0,,18.03
KMDW,08/09/2020 15:40 UTC,29.0,,51.58,3.6,220.0,,18.03
KMDW,08/09/2020 15:45 UTC,29.0,,51.58,4.12,220.0,,18.03
KMDW,08/09/2020 15:50 UTC,30.0,,48.69,4.12,220.0,,18.04
KMDW,08/09/2020 15:53 UTC,30.0,18.3,49.62,4.12,220.0,,18.34
KMDW,08/09/2020 15:55 UTC,30.0,,48.69,4.63,210.0,,18.04
KMDW,08/09/2020 16:00 UTC,30.0,,51.84,5.66,200.0,,19.04
KMDW,08/09/2020 16:05 UTC,29.0,,51.58,4.63,210.0,,18.03
KMDW,08/09/2020 16:10 UTC,30.0,,51.84,4.63,200.0,,19.04
KMDW,08/09/2020 16:15 UTC,30.0,,51.84,4.63,210.0,7.72,19.04
KMDW,08/09/2020 16:20 UTC,29.0,,54.9,4.12,190.0,,19.03
KMDW,08/09/2020 16:25 UTC,31.0,,48.96,3.6,200.0,,19.05
KMDW,08/09/2020 16:30 UTC,31.0,,48.96,3.09,200.0,,19.05
KMDW,08/09/2020 16:35 UTC,30.0,,51.84,5.66,190.0,,19.04
KMDW,08/09/2020 16:40 UTC,30.0,,51.84,5.66,190.0,,19.04
KMDW,08/09/2020 16:45 UTC,31.0,,48.96,4.63,210.0,,19.05
KMDW,08/09/2020 16:50 UTC,31.0,,48.96,4.63,200.0,7.72,19.05
KMDW,08/09/2020 16:53 UTC,30.6,19.4,51.35,5.66,210.0,8.23,19.45
KMDW,08/09/2020 16:55 UTC,31.0,,48.96,6.17,220.0,8.75,19.05
KMDW,08/09/2020 17:00 UTC,31.0,,48.96,6.17,230.0,,19.05
KMDW,08/09/2020 17:05 UTC,31.0,,52.09,6.17,220.0,8.75,20.05
KMDW,08/09/2020 17:10 UTC,31.0,,48.96,7.2,210.0,,19.05
KMDW,08/09/2020 17:15 UTC,31.0,,52.09,6.17,230.0,,20.05
KMDW,08/09/2020 17:20 UTC,31.0,,52.09,5.14,210.0,8.23,20.05
KMDW,08/09/2020 17:25 UTC,31.0,,52.09,5.14,190.0,,20.05
KMDW,08/09/2020 17:30 UTC,31.0,,52.09,5.14,220.0,7.72,20.05
KMDW,08/09/2020 17:35 UTC,31.0,,52.09,6.69,190.0,11.32,20.05
KMDW,08/09/2020 17:40 UTC,31.0,,52.09,7.2,200.0,,20.05
KMDW,08/09/2020 17:45 UTC,31.0,,52.09,5.66,190.0,,20.05
KMDW,08/09/2020 17:50 UTC,32.0,,49.23,7.2,180.0,,20.06
KMDW,08/09/2020 17:53 UTC,31.7,20.0,50.07,6.69,180.0,12.35,20.06
KMDW,08/09/2020 17:55 UTC,32.0,,46.26,7.72,180.0,,19.07
KMDW,08/09/2020 18:00 UTC,31.0,,48.96,7.2,180.0,10.8,19.05
KMDW,08/09/2020 18:05 UTC,31.0,,48.96,5.14,190.0,,19.05
KMDW,08/09/2020 18:10 UTC,32.0,,46.26,6.69,190.0,11.83,19.07
KMDW,08/09/2020 18:15 UTC,32.0,,46.26,6.17,200.0,9.26,19.07
KMDW,08/09/2020 18:20 UTC,32.0,,46.26,7.72,200.0,11.32,19.07
KMDW,08/09/2020 18:25 UTC,32.0,,46.26,7.72,200.0,,19.07
KMDW,08/09/2020 18:30 UTC,32.0,,46.26,6.17,210.0,8.75,19.07
KMDW,08/09/2020 18:35 UTC,32.0,,46.26,7.72,180.0,10.8,19.07
KMDW,08/09/2020 18:40 UTC,32.0,,49.23,7.72,180.0,,20.06
KMDW,08/09/2020 18:45 UTC,31.0,,52.09,7.72,180.0,,20.05
KMDW,08/09/2020 18:50 UTC,31.0,,52.09,5.66,180.0,8.75,20.05
KMDW,08/09/2020 18:53 UTC,31.7,20.0,50.07,7.2,170.0,10.29,20.06
KMDW,08/09/2020 18:55 UTC,32.0,,49.23,6.69,170.0,,20.06
KMDW,08/09/2020 19:00 UTC,32.0,,46.26,7.2,200.0,11.32,19.07
KMDW,08/09/2020 19:05 UTC,31.0,,48.96,7.2,170.0,9.77,19.05
KMDW,08/09/2020 19:10 UTC,32.0,,46.26,6.69,170.0,9.26,19.07
KMDW,08/09/2020 19:15 UTC,32.0,,46.26,7.2,190.0,,19.07
KMDW,08/09/2020 19:20 UTC,32.0,,49.23,5.66,190.0,,20.06
KMDW,08/09/2020 19:25 UTC,32.0,,46.26,7.72,180.0,,19.07
KMDW,08/09/2020 19:30 UTC,32.0,,49.23,8.23,190.0,11.32,20.06
KMDW,08/09/2020 19:35 UTC,32.0,,46.26,6.69,190.0,,19.07
KMDW,08/09/2020 19:40 UTC,32.0,,49.23,7.2,180.0,10.8,20.06
KMDW,08/09/2020 19:45 UTC,32.0,,49.23,6.17,190.0,9.77,20.06
KMDW,08/09/2020 19:50 UTC,32.0,,52.35,7.72,180.0,,21.06
KMDW,08/09/2020 19:53 UTC,31.7,20.0,50.07,8.23,170.0,11.32,20.06
KMDW,08/09/2020 19:55 UTC,32.0,,49.23,7.2,190.0,10.8,20.06
KMDW,08/09/2020 20:00 UTC,32.0,,49.23,7.2,190.0,10.8,20.06
KMDW,08/09/2020 20:05 UTC,31.0,,52.09,6.69,190.0,9.26,20.05
KMDW,08/09/2020 20:10 UTC,31.0,,55.4,7.72,180.0,11.83,21.04
KMDW,08/09/2020 20:15 UTC,31.0,,55.4,6.17,190.0,8.75,21.04
KMDW,08/09/2020 20:20 UTC,31.0,,55.4,7.72,170.0,,21.04
KMDW,08/09/2020 20:25 UTC,31.0,,55.4,7.72,200.0,,21.04
KMDW,08/09/2020 20:30 UTC,31.0,,55.4,7.72,200.0,,21.04
KMDW,08/09/2020 20:35 UTC,31.0,,55.4,6.17,200.0,8.75,21.04
KMDW,08/09/2020 20:40 UTC,31.0,,52.09,7.72,210.0,,20.05
KMDW,08/09/2020 20:45 UTC,31.0,,48.96,7.2,210.0,,19.05
KMDW,08/09/2020 20:50 UTC,31.0,,48.96,6.69,200.0,,19.05
KMDW,08/09/2020 20:53 UTC,30.6,19.4,51.35,6.69,210.0,11.32,19.45
KMDW,08/09/2020 20:55 UTC,31.0,,48.96,7.2,200.0,,19.05
KMDW,08/09/2020 21:00 UTC,30.0,,55.15,6.17,200.0,,20.04
KMDW,08/09/2020 21:05 UTC,30.0,,55.15,6.17,200.0,,20.04
KMDW,08/09/2020 21:10 UTC,31.0,,52.09,6.69,180.0,,20.05
KMDW,08/09/2020 21:15 UTC,30.0,,55.15,6.69,200.0,,20.04
KMDW,08/09/2020 21:20 UTC,31.0,,52.09,7.72,210.0,11.32,20.05
KMDW,08/09/2020 21:25 UTC,31.0,,52.09,5.66,210.0,,20.05
KMDW,08/09/2020 21:30 UTC,31.0,,52.09,5.66,200.0,,20.05
KMDW,08/09/2020 21:35 UTC,31.0,,52.09,6.17,200.0,,20.05
KMDW,08/09/2020 21:40 UTC,31.0,,52.09,6.69,180.0,9.26,20.05
KMDW,08/09/2020 21:45 UTC,31.0,,52.09,5.66,220.0,,20.05
KMDW,08/09/2020 21:50 UTC,31.0,,52.09,5.66,220.0,,20.05
KMDW,08/09/2020 21:53 UTC,31.1,20.0,51.8,7.2,230.0,,20.05
KMDW,08/09/2020 21:55 UTC,31.0,,52.09,7.2,210.0,10.8,20.05
KMDW,08/09/2020 22:00 UTC,31.0,,52.09,6.17,210.0,9.26,20.05
KMDW,08/09/2020 22:05 UTC,31.0,,52.09,7.2,210.0,,20.05
KMDW,08/09/2020 22:10 UTC,31.0,,52.09,5.14,240.0,,20.05
KMDW,08/09/2020 22:15 UTC,31.0,,52.09,5.66,210.0,8.23,20.05
KMDW,08/09/2020 22:20 UTC,30.0,,55.15,6.17,200.0,,20.04
KMDW,08/09/2020 22:25 UTC,30.0,,58.66,6.17,200.0,9.26,21.03
KMDW,08/09/2020 22:30 UTC,30.0,,58.66,6.69,210.0,9.26,21.03
KMDW,08/09/2020 22:35 UTC,31.0,,55.4,6.17,200.0,,21.04
KMDW,08/09/2020 22:40 UTC,31.0,,55.4,5.14,200.0,,21.04
KMDW,08/09/2020 22:45 UTC,31.0,,55.4,7.2,190.0,,21.04
KMDW,08/09/2020 22:50 UTC,31.0,,55.4,6.69,190.0,,21.04
KMDW,08/09/2020 22:53 UTC,30.6,20.6,55.3,6.17,190.0,10.8,20.64
KMDW,08/09/2020 22:55 UTC,31.0,,55.4,6.17,180.0,8.75,21.04
KMDW,08/09/2020 23:00 UTC,31.0,,55.4,6.69,180.0,9.77,21.04
KMDW,08/09/2020 23:05 UTC,31.0,,55.4,7.72,170.0,,21.04
KMDW,08/09/2020 23:10 UTC,30.0,,58.66,6.17,200.0,9.26,21.03
KMDW,08/09/2020 23:15 UTC,29.0,,62.13,6.17,190.0,,21.02
KMDW,08/09/2020 23:20 UTC,30.0,,58.66,6.17,190.0,9.26,21.03
KMDW,08/09/2020 23:25 UTC,30.0,,58.66,5.66,210.0,,21.03
KMDW,08/09/2020 23:30 UTC,30.0,,58.66,5.66,210.0,8.23,21.03
KMDW,08/09/2020 23:35 UTC,29.0,,62.13,6.69,210.0,,21.02
KMDW,08/09/2020 23:40 UTC,30.0,,58.66,5.14,200.0,,21.03
KMDW,08/09/2020 23:45 UTC,30.0,,58.66,7.2,190.0,11.32,21.03
KMDW,08/09/2020 23:50 UTC,29.0,,62.13,7.2,230.0,,21.02
KMDW,08/09/2020 23:53 UTC,29.4,20.6,59.24,7.2,220.0,11.83,20.63
KMDW,08/09/2020 23:55 UTC,29.0,,62.13,6.17,220.0,,21.02
KMDW,08/10/2020 00:00 UTC,29.0,,62.13,6.17,220.0,,21.02
KMDW,08/10/2020 00:05 UTC,29.0,,62.13,6.69,220.0,,21.02
KMDW,08/10/2020 00:10 UTC,29.0,,62.13,6.17,210.0,8.75,21.02
KMDW,08/10/2020 00:15 UTC,29.0,,62.13,5.14,230.0,,21.02
KMDW,08/10/2020 00:20 UTC,29.0,,62.13,5.66,220.0,,21.02
KMDW,08/10/2020 00:25 UTC,29.0,,62.13,5.66,230.0,,21.02
KMDW,08/10/2020 00:30 UTC,29.0,,62.13,4.63,220.0,,21.02
KMDW,08/10/2020 00:35 UTC,29.0,,62.13,5.14,210.0,,21.02
KMDW,08/10/2020 00:40 UTC,29.0,,62.13,4.63,210.0,,21.02
KMDW,08/10/2020 00:45 UTC,29.0,,62.13,4.63,210.0,,21.02
KMDW,08/10/2020 00:50 UTC,29.0,,62.13,4.63,220.0,,21.02
KMDW,08/10/2020 00:53 UTC,28.9,21.1,62.87,4.63,200.0,,21.12
KMDW,08/10/2020 00:55 UTC,29.0,,62.13,4.63,210.0,,21.02
KMDW,08/10/2020 01:00 UTC,29.0,,62.13,5.66,210.0,,21.02
KMDW,08/10/2020 01:05 UTC,29.0,,62.13,4.12,210.0,,21.02
KMDW,08/10/2020 01:10 UTC,29.0,,62.13,4.63,210.0,,21.02
KMDW,08/10/2020 01:15 UTC,29.0,,62.13,4.12,200.0,,21.02
KMDW,08/10/2020 01:20 UTC,29.0,,62.13,4.63,200.0,,21.02
KMDW,08/10/2020 01:25 UTC,29.0,,66.04,4.12,210.0,,22.02
KMDW,08/10/2020 01:30 UTC,29.0,,62.13,6.17,210.0,,21.02
KMDW,08/10/2020 01:35 UTC,29.0,,62.13,4.12,220.0,,21.02
KMDW,08/10/2020 01:40 UTC,29.0,,66.04,3.6,210.0,,22.02
KMDW,08/10/2020 01:45 UTC,29.0,,66.04,4.12,220.0,,22.02
KMDW,08/10/2020 01:50 UTC,29.0,,66.04,4.63,220.0,,22.02
KMDW,08/10/2020 01:53 UTC,28.9,21.7,65.22,3.6,220.0,,21.72
KMDW,08/10/2020 01:55 UTC,29.0,,66.04,4.12,230.0,,22.02
KMDW,08/10/2020 01:57 UTC,28.9,21.7,65.22,4.12,220.0,,21.72
KMDW,08/10/2020 02:00 UTC,29.0,,66.04,3.09,220.0,,22.02
KMDW,08/10/2020 02:05 UTC,29.0,,66.04,3.6,250.0,,22.02
KMDW,08/10/2020 02:10 UTC,27.0,,69.79,5.66,360.0,,21.01
KMDW,08/10/2020 02:15 UTC,26.0,,65.41,6.17,10.0,,19.0
KMDW,08/10/2020 02:20 UTC,25.0,,69.4,5.14,30.0,,19.0
KMDW,08/10/2020 02:21 UTC,25.0,19.4,71.15,5.14,30.0,,19.4
KMDW,08/10/2020 02:25 UTC,25.0,,73.85,6.17,20.0,,20.0
KMDW,08/10/2020 02:30 UTC,24.0,,83.37,4.63,30.0,,21.0
KMDW,08/10/2020 02:35 UTC,24.0,,83.37,4.63,40.0,,21.0
KMDW,08/10/2020 02:40 UTC,24.0,,83.37,4.12,40.0,,21.0
KMDW,08/10/2020 02:45 UTC,24.0,,83.37,4.12,50.0,,21.0
KMDW,08/10/2020 02:50 UTC,24.0,,83.37,4.12,60.0,,21.0
KMDW,08/10/2020 02:53 UTC,24.4,21.1,81.9,4.12,70.0,,21.1
KMDW,08/10/2020 02:55 UTC,24.0,,83.37,3.6,70.0,,21.0
KMDW,08/10/2020 03:00 UTC,24.0,,83.37,3.09,60.0,,21.0
KMDW,08/10/2020 03:05 UTC,24.0,,83.37,3.6,100.0,,21.0
KMDW,08/10/2020 03:10 UTC,24.0,,83.37,4.12,110.0,,21.0
KMDW,08/10/2020 03:15 UTC,24.0,,83.37,4.12,120.0,,21.0
KMDW,08/10/2020 03:20 UTC,24.0,,83.37,5.14,110.0,,21.0
KMDW,08/10/2020 03:25 UTC,24.0,,83.37,3.6,120.0,,21.0
KMDW,08/10/2020 03:30 UTC,24.0,,88.62,3.6,130.0,,22.0
KMDW,08/10/2020 03:34 UTC,24.4,21.7,84.96,4.12,140.0,,21.7
KMDW,08/10/2020 03:35 UTC,24.0,,88.62,4.63,140.0,,22.0
KMDW,08/10/2020 03:40 UTC,24.0,,88.62,4.12,130.0,,22.0
KMDW,08/10/2020 03:45 UTC,24.0,,88.62,4.63,130.0,,22.0
KMDW,08/10/2020 03:50 UTC,24.0,,88.62,4.12,140.0,,22.0
KMDW,08/10/2020 03:53 UTC,24.4,21.7,84.96,4.63,130.0,,21.7
KMDW,08/10/2020 03:55 UTC,24.0,,83.37,4.12,140.0,,21.0
KMDW,08/10/2020 04:00 UTC,24.0,,83.37,4.63,150.0,,21.0
KMDW,08/10/2020 04:05 UTC,24.0,,83.37,3.6,150.0,,21.0
KMDW,08/10/2020 04:10 UTC,24.0,,83.37,4.12,140.0,,21.0
KMDW,08/10/2020 04:15 UTC,25.0,,78.54,4.12,140.0,,21.0
KMDW,08/10/2020 04:20 UTC,25.0,,78.54,3.09,130.0,,21.0
KMDW,08/10/2020 04:25 UTC,25.0,,78.54,3.09,130.0,,21.0
KMDW,08/10/2020 04:30 UTC,25.0,,78.54,2.57,130.0,,21.0
KMDW,08/10/2020 04:35 UTC,25.0,,78.54,3.6,120.0,,21.0
KMDW,08/10/2020 04:40 UTC,25.0,,78.54,3.6,120.0,,21.0
KMDW,08/10/2020 04:45 UTC,25.0,,78.54,3.6,110.0,,21.0
KMDW,08/10/2020 04:50 UTC,25.0,,78.54,3.6,100.0,,21.0
KMDW,08/10/2020 04:53 UTC,25.0,21.1,79.02,4.12,100.0,,21.1
KMDW,08/10/2020 04:55 UTC,25.0,,78.54,4.12,100.0,,21.0
KMDW,08/10/2020 05:00 UTC,25.0,,83.48,3.09,100.0,,22.0
KMDW,08/10/2020 05:05 UTC,24.0,,88.62,3.09,110.0,,22.0
KMDW,08/10/2020 05:10 UTC,24.0,,88.62,3.09,120.0,,22.0
KMDW,08/10/2020 05:15 UTC,24.0,,88.62,2.57,110.0,,22.0
KMDW,08/10/2020 05:20 UTC,24.0,,88.62,3.09,120.0,,22.0
KMDW,08/10/2020 05:25 UTC,24.0,,88.62,3.6,110.0,,22.0
KMDW,08/10/2020 05:30 UTC,24.0,,88.62,4.12,110.0,,22.0
KMDW,08/10/2020 05:35 UTC,24.0,,88.62,3.6,110.0,,22.0
KMDW,08/10/2020 05:40 UTC,24.0,,88.62,3.09,110.0,,22.0
KMDW,08/10/2020 05:45 UTC,24.0,,88.62,3.09,120.0,,22.0
KMDW,08/10/2020 05:50 UTC,24.0,,88.62,2.57,110.0,,22.0
KMDW,08/10/2020 05:53 UTC,23.9,21.7,87.54,2.57,110.0,,21.7
KMDW,08/10/2020 05:55 UTC,24.0,,88.62,2.57,110.0,,22.0
KMDW,08/10/2020 06:00 UTC,24.0,,88.62,2.57,100.0,,22.0
KMDW,08/10/2020 06:05 UTC,24.0,,88.62,2.57,100.0,,22.0
KMDW,08/10/2020 06:10 UTC,24.0,,88.62,3.09,100.0,,22.0
KMDW,08/10/2020 06:13 UTC,24.4,21.7,84.96,2.57,110.0,,21.7
KMDW,08/10/2020 06:15 UTC,24.0,,88.62,2.57,120.0,,22.0
KMDW,08/10/2020 06:20 UTC,24.0,,88.62,2.57,110.0,,22.0
KMDW,08/10/2020 06:25 UTC,24.0,,88.62,2.57,120.0,,22.0
KMDW,08/10/2020 06:30 UTC,24.0,,88.62,2.06,130.0,,22.0
KMDW,08/10/2020 06:35 UTC,25.0,,83.48,2.06,110.0,,22.0
KMDW,08/10/2020 06:37 UTC,25.0,21.7,81.97,2.06,110.0,,21.7
KMDW,08/10/2020 06:40 UTC,25.0,,83.48,2.06,110.0,,22.0
KMDW,08/10/2020 06:45 UTC,25.0,,83.48,1.54,140.0,,22.0
KMDW,08/10/2020 06:50 UTC,25.0,,83.48,1.54,140.0,,22.0
KMDW,08/10/2020 06:53 UTC,25.0,22.2,84.51,2.06,140.0,,22.2
KMDW,08/10/2020 06:55 UTC,25.0,,83.48,2.06,150.0,,22.0
KMDW,08/10/2020 07:00 UTC,25.0,,83.48,2.57,150.0,,22.0
KMDW,08/10/2020 07:05 UTC,25.0,,83.48,2.57,160.0,,22.0
KMDW,08/10/2020 07:10 UTC,25.0,,83.48,2.57,160.0,,22.0
KMDW,08/10/2020 07:15 UTC,26.0,,78.68,2.57,160.0,,22.0
KMDW,08/10/2020 07:20 UTC,26.0,,78.68,2.57,160.0,,22.0
KMDW,08/10/2020 07:25 UTC,26.0,,83.6,2.57,170.0,,23.0
KMDW,08/10/2020 07:30 UTC,26.0,,83.6,2.57,160.0,,23.0
KMDW,08/10/2020 07:35 UTC,26.0,,83.6,3.09,170.0,,23.0
KMDW,08/10/2020 07:40 UTC,26.0,,83.6,2.57,170.0,,23.0
KMDW,08/10/2020 07:45 UTC,26.0,,83.6,3.09,170.0,,23.0
KMDW,08/10/2020 07:50 UTC,26.0,,83.6,2.57,170.0,,23.0
KMDW,08/10/2020 07:53 UTC,25.6,22.8,84.57,3.09,170.0,,22.8
KMDW,08/10/2020 07:55 UTC,26.0,,83.6,3.6,170.0,,23.0
KMDW,08/10/2020 08:00 UTC,26.0,,83.6,3.6,180.0,,23.0
KMDW,08/10/2020 08:05 UTC,25.0,,88.7,3.09,180.0,,23.0
KMDW,08/10/2020 08:10 UTC,25.0,,88.7,3.09,160.0,,23.0
KMDW,08/10/2020 08:15 UTC,25.0,,88.7,3.6,170.0,,23.0
KMDW,08/10/2020 08:20 UTC,25.0,,88.7,4.12,170.0,,23.0
KMDW,08/10/2020 08:25 UTC,25.0,,88.7,4.63,180.0,,23.0
KMDW,08/10/2020 08:30 UTC,25.0,,88.7,3.6,180.0,,23.0
KMDW,08/10/2020 08:35 UTC,25.0,,88.7,3.09,180.0,,23.0
KMDW,08/10/2020 08:40 UTC,25.0,,88.7,3.6,180.0,,23.0
KMDW,08/10/2020 08:45 UTC,25.0,,88.7,3.09,190.0,,23.0
KMDW,08/10/2020 08:50 UTC,25.0,,88.7,3.6,180.0,,23.0
KMDW,08/10/2020 08:53 UTC,25.0,22.8,87.64,3.6,170.0,,22.8
KMDW,08/10/2020 08:55 UTC,25.0,,88.7,3.09,180.0,,23.0
KMDW,08/10/2020 09:00 UTC,24.0,,94.16,3.09,180.0,,23.0
KMDW,08/10/2020 09:05 UTC,24.0,,94.16,3.09,180.0,,23.0
KMDW,08/10/2020 09:10 UTC,24.0,,94.16,3.6,180.0,,23.0
KMDW,08/10/2020 09:15 UTC,24.0,,94.16,4.12,190.0,,23.0
KMDW,08/10/2020 09:20 UTC,24.0,,94.16,3.09,190.0,,23.0
KMDW,08/10/2020 09:25 UTC,24.0,,94.16,2.57,190.0,,23.0
KMDW,08/10/2020 09:30 UTC,24.0,,88.62,3.6,200.0,,22.0
KMDW,08/10/2020 09:35 UTC,24.0,,88.62,4.12,190.0,,22.0
KMDW,08/10/2020 09:40 UTC,24.0,,88.62,4.12,190.0,,22.0
KMDW,08/10/2020 09:45 UTC,24.0,,88.62,3.6,190.0,,22.0
KMDW,08/10/2020 09:50 UTC,24.0,,88.62,3.6,200.0,,22.0
KMDW,08/10/2020 09:53 UTC,23.9,22.2,90.25,3.09,190.0,,22.2
KMDW,08/10/2020 09:55 UTC,24.0,,88.62,3.6,190.0,,22.0
KMDW,08/10/2020 10:00 UTC,24.0,,88.62,3.09,190.0,,22.0
KMDW,08/10/2020 10:05 UTC,24.0,,88.62,4.12,190.0,,22.0
KMDW,08/10/2020 10:10 UTC,24.0,,88.62,3.09,190.0,,22.0
KMDW,08/10/2020 10:15 UTC,24.0,,88.62,3.6,190.0,,22.0
KMDW,08/10/2020 10:20 UTC,24.0,,88.62,2.57,190.0,,22.0
KMDW,08/10/2020 10:25 UTC,24.0,,88.62,3.09,190.0,,22.0
KMDW,08/10/2020 10:30 UTC,24.0,,88.62,3.09,190.0,,22.0
KMDW,08/10/2020 10:35 UTC,24.0,,88.62,3.09,180.0,,22.0
KMDW,08/10/2020 10:40 UTC,24.0,,88.62,3.6,180.0,,22.0
KMDW,08/10/2020 10:45 UTC,24.0,,88.62,3.09,190.0,,22.0
KMDW,08/10/2020 10:50 UTC,24.0,,88.62,3.09,180.0,,22.0
KMDW,08/10/2020 10:53 UTC,23.9,22.2,90.25,3.6,170.0,,22.2
KMDW,08/10/2020 10:55 UTC,24.0,,88.62,4.12,170.0,,22.0
KMDW,08/10/2020 11:00 UTC,24.0,,88.62,4.12,170.0,,22.0
KMDW,08/10/2020 11:05 UTC,24.0,,88.62,4.63,170.0,,22.0
KMDW,08/10/2020 11:10 UTC,24.0,,88.62,4.12,170.0,,22.0
KMDW,08/10/2020 11:15 UTC,24.0,,88.62,5.14,170.0,7.72,22.0
KMDW,08/10/2020 11:20 UTC,24.0,,88.62,4.63,160.0,,22.0
KMDW,08/10/2020 11:25 UTC,24.0,,88.62,4.63,170.0,,22.0
KMDW,08/10/2020 11:30 UTC,24.0,,88.62,5.14,180.0,,22.0
KMDW,08/10/2020 11:35 UTC,24.0,,88.62,4.63,170.0,,22.0
KMDW,08/10/2020 11:40 UTC,24.0,,88.62,5.14,160.0,,22.0
KMDW,08/10/2020 11:45 UTC,24.0,,88.62,4.63,170.0,,22.0
KMDW,08/10/2020 11:50 UTC,24.0,,88.62,4.12,170.0,,22.0
KMDW,08/10/2020 11:53 UTC,23.9,21.7,87.54,4.63,180.0,,21.7
KMDW,08/10/2020 11:55 UTC,24.0,,88.62,4.12,170.0,,22.0
KMDW,08/10/2020 12:00 UTC,24.0,,88.62,4.12,170.0,,22.0
KMDW,08/10/2020 12:05 UTC,24.0,,88.62,4.12,170.0,,22.0
KMDW,08/10/2020 12:10 UTC,24.0,,88.62,4.63,170.0,8.75,22.0
KMDW,08/10/2020 12:15 UTC,24.0,,88.62,4.12,170.0,,22.0
KMDW,08/10/2020 12:20 UTC,24.0,,88.62,5.14,180.0,,22.0
KMDW,08/10/2020 12:25 UTC,25.0,,83.48,4.63,180.0,,22.0
KMDW,08/10/2020 12:30 UTC,25.0,,83.48,5.14,180.0,,22.0
KMDW,08/10/2020 12:35 UTC,25.0,,83.48,5.14,180.0,,22.0
KMDW,08/10/2020 12:40 UTC,25.0,,83.48,4.63,190.0,,22.0
KMDW,08/10/2020 12:45 UTC,25.0,,83.48,5.14,190.0,,22.0
KMDW,08/10/2020 12:50 UTC,25.0,,83.48,4.12,190.0,,22.0
KMDW,08/10/2020 12:53 UTC,25.0,22.2,84.51,4.63,180.0,,22.2
KMDW,08/10/2020 12:55 UTC,25.0,,83.48,5.14,180.0,,22.0
KMDW,08/10/2020 13:00 UTC,25.0,,83.48,4.12,190.0,,22.0
KMDW,08/10/2020 13:05 UTC,25.0,,83.48,6.17,190.0,,22.0
KMDW,08/10/2020 13:10 UTC,26.0,,78.68,6.17,180.0,9.26,22.0
KMDW,08/10/2020 13:15 UTC,26.0,,78.68,5.66,200.0,,22.0
KMDW,08/10/2020 13:20 UTC,26.0,,78.68,5.66,200.0,,22.0
KMDW,08/10/2020 13:25 UTC,26.0,,78.68,5.66,190.0,,22.0
KMDW,08/10/2020 13:30 UTC,26.0,,78.68,6.69,190.0,10.8,22.0
KMDW,08/10/2020 13:35 UTC,26.0,,78.68,5.14,190.0,,22.0
KMDW,08/10/2020 13:40 UTC,26.0,,78.68,4.63,190.0,,22.0
KMDW,08/10/2020 13:45 UTC,26.0,,78.68,6.17,200.0,,22.0
KMDW,08/10/2020 13:50 UTC,26.0,,78.68,5.66,200.0,,22.0
KMDW,08/10/2020 13:53 UTC,26.1,22.2,79.18,5.66,200.0,,22.2
KMDW,08/10/2020 13:55 UTC,26.0,,78.68,5.66,180.0,8.23,22.0
KMDW,08/10/2020 14:00 UTC,26.0,,78.68,5.66,210.0,,22.0